Temp
8 9 11 13 14 14 14 13 14 14 13 13 14 14 15 15 15 15 16 16 16 16 16 14 15 16 16 16 16 16 16 17 17 15 14 16 17 18 17 18 17 16 17 17
9 10 13 13 13 13 13 13 13 12 12 13 14 13 15 15 15 15 14 15 14 13 13 13 15 16 16 16 16 16 16 16 16 16 14 15 15 17 17 18 18 17 17 17
10 11 13 12 12 12 12 13 12 13 12 12 12 15 14 13 13 12 11 11 12 12 12 12 12 13 14 15 15 16 16 16 16 16 16 14 13 13 15 17 18 18 18 17
10 10 12 12 12 13 12 12 12 12 13 14 11 16 14 13 12 13 12 12 12 11 11 11 11 11 12 13 14 14 15 15 15 16 15 15 13 13 15 17 17 17 18 17
7 9 11 12 12 13 12 11 11 10 12 12 12 14 15 13 12 12 12 12 11 10 10 10 11 12 12 13 13 13 14 15 15 15 15 14 12 12 12 12 12 15 16 17
6 6 8 8 8 11 10 10 10 10 11 11 11 12 15 14 14 13 12 12 11 10 10 10 10 12 12 13 13 13 13 13 14 14 14 14 14 12 12 12 12 13 13 15
5 6 6 7 6 7 10 11 10 10 10 12 9 10 15 13 13 14 13 12 11 10 10 10 10 9 11 12 13 13 13 13 13 13 13 13 13 13 12 11 11 12 13 14
8 8 6 6 7 6 8 11 12 12 12 12 8 11 14 13 12 12 11 11 10 11 10 9 9 9 9 10 10 11 12 12 12 13 13 13 13 13 13 12 11 11 11 11
9 7 7 8 9 8 7 8 9 9 8 10 13 12 12 11 10 11 11 11 11 10 10 9 8 8 8 8 8 9 9 10 10 11 11 12 12 12 13 13 12 12 12 12
9 7 8 8 9 9 10 9 9 8 10 12 13 12 15 12 12 12 13 12 11 10 9 8 7 7 6 6 7 7 8 8 9 9 9 10 11 11 12 12 13 13 13 12
10 10 7 9 9 10 9 9 8 10 9 12 13 14 13 14 13 13 13 12 11 10 8 7 6 5 6 6 6 7 7 7 7 8 8 9 9 10 11 11 12 12 12 12
9 9 8 8 8 8 9 10 11 11 8 8 9 14 12 13 12 12 12 11 10 9 7 6 5 5 5 5 6 7 7 7 7 7 8 8 9 9 9 10 11 11 11 12
10 8 7 7 8 8 8 9 9 8 8 7 11 14 11 11 12 12 11 11 10 8 6 5 4 3 4 4 4 5 6 6 6 7 7 8 8 8 8 9 9 9 10 10
9 8 8 10 9 8 7 8 8 8 8 10 11 12 12 13 13 12 12 10 8 7 5 4 3 2 3 2 3 4 5 6 6 6 7 7 7 7 7 7 8 7 9 8
10 7 6 8 8 7 7 8 7 6 9 9 11 10 12 13 12 12 11 10 7 6 4 3 2 1 2 2 2 2 4 5 5 5 5 6 6 5 5 4 4 5 5 6
8 6 5 6 6 7 6 8 8 8 8 8 10 10 13 12 11 11 11 8 7 5 4 2 1 1 3 3 3 3 3 3 3 3 4 4 4 4 4 3 3 3 3 4
9 6 6 8 7 7 7 8 8 8 8 9 9 11 13 12 12 10 9 6 5 4 2 2 1 -0 1 1 1 1 2 2 2 2 2 2 2 2 2 2 2 2 1 1
8 7 6 7 7 8 10 9 9 9 9 9 10 11 11 11 10 8 6 5 4 3 3 1 -0 -1 -1 0 -0 0 1 0 1 1 1 1 1 1 1 1 0 0 -0 -0
9 8 7 7 7 10 10 8 8 9 10 9 9 11 11 10 8 9 6 5 3 5 2 1 -0 -1 -1 -1 -1 -0 -0 -0 0 -0 -0 0 0 0 0 0 -0 -1 -1 -1
8 9 8 7 6 8 11 10 9 10 10 10 10 10 10 9 10 11 6 5 4 4 3 2 2 1 0 -0 -1 -0 -0 -0 -0 -1 -1 -1 -1 -0 -0 -1 -1 -1 -1 -1
7 7 7 8 8 10 11 10 10 9 10 9 9 9 8 9 9 6 6 5 4 4 3 2 2 2 1 1 0 -1 -1 -1 -1 -1 -2 -1 -1 -1 -1 -1 -2 -2 -2 -2
8 7 7 8 7 7 9 8 9 10 9 8 8 8 7 7 6 5 5 4 4 4 3 2 1 2 2 1 -0 -1 -0 -1 -1 -0 -1 -1 -1 -1 -1 -1 -1 -2 -2 -2
8 9 9 10 10 10 8 9 9 9 9 9 8 8 8 7 6 5 4 3 5 4 4 3 3 2 2 0 -0 -0 -0 -1 -0 -1 -1 -1 -1 -1 -1 -1 -1 -1 -1 -2
8 7 8 8 11 10 9 8 9 9 8 8 8 8 8 7 6 5 4 4 5 4 4 4 4 3 2 1 -0 -0 0 0 0 0 0 -0 -0 -1 -1 -1 -1 -1 -2 -2
8 7 8 8 9 8 8 8 8 8 8 7 8 8 8 7 7 6 5 5 4 4 4 4 4 3 3 2 2 2 1 1 0 1 1 0 -0 -1 -1 -1 -1 -1 -2 -2
6 8 8 10 10 10 9 7 7 7 7 6 6 7 8 7 7 6 6 5 4 4 4 4 4 3 3 2 2 2 1 1 0 1 0 0 -0 -1 -1 -1 -1 -2 -2 -2
Height
1482 1482 1480 1479 1484 1486 1486 1494 1494 1494 1501 1502 1499 1499 1498 1499 1499 1499 1497 1496 1497 1498 1499 1497 1496 1497 1497 1498 1499 1500 1502 1504 1507 1508 1507 1507 1508 1510 1510 1512 1514 1515 1517 1518
1483 1477 1476 1481 1487 1490 1488 1491 1494 1500 1503 1502 1498 1498 1494 1493 1494 1495 1494 1493 1494 1495 1494 1492 1491 1491 1491 1492 1492 1494 1495 1497 1499 1499 1500 1500 1501 1502 1503 1504 1506 1508 1510 1512
1474 1476 1478 1483 1487 1489 1491 1490 1495 1494 1501 1504 1501 1488 1490 1495 1495 1496 1494 1493 1493 1494 1493 1491 1489 1487 1486 1486 1485 1486 1487 1488 1490 1491 1492 1494 1495 1494 1495 1496 1499 1501 1503 1503
1473 1477 1478 1481 1486 1486 1493 1494 1495 1498 1498 1491 1500 1482 1486 1492 1495 1494 1495 1495 1494 1494 1493 1491 1488 1486 1485 1484 1483 1482 1481 1481 1482 1484 1484 1485 1486 1486 1487 1490 1491 1493 1494 1495
1480 1477 1477 1480 1482 1487 1491 1496 1497 1501 1500 1499 1498 1494 1483 1490 1493 1494 1495 1496 1495 1493 1491 1490 1487 1486 1484 1483 1481 1480 1479 1478 1477 1476 1477 1478 1479 1481 1483 1483 1483 1484 1485 1486
1483 1482 1485 1488 1492 1489 1497 1498 1502 1505 1503 1501 1497 1497 1478 1484 1485 1491 1495 1494 1493 1492 1490 1489 1486 1484 1483 1481 1479 1478 1476 1475 1473 1472 1471 1471 1473 1475 1477 1477 1476 1476 1476 1476
1483 1490 1490 1490 1494 1499 1493 1492 1502 1504 1504 1489 1506 1503 1474 1485 1487 1488 1492 1492 1491 1490 1488 1487 1485 1482 1479 1477 1475 1474 1473 1471 1470 1469 1467 1466 1465 1466 1468 1469 1470 1469 1469 1468
1478 1486 1491 1492 1493 1497 1496 1492 1483 1485 1489 1486 1508 1490 1475 1484 1487 1489 1491 1491 1489 1488 1487 1485 1482 1479 1476 1473 1471 1470 1469 1467 1465 1465 1463 1462 1462 1461 1461 1461 1462 1463 1464 1463
1478 1489 1494 1495 1493 1495 1501 1498 1497 1499 1507 1494 1478 1482 1483 1483 1485 1489 1489 1488 1487 1486 1485 1483 1479 1476 1473 1471 1468 1466 1464 1462 1461 1459 1459 1458 1458 1457 1456 1456 1456 1455 1456 1456
1478 1488 1492 1493 1493 1493 1489 1494 1497 1499 1495 1483 1473 1478 1467 1481 1483 1486 1486 1485 1484 1483 1481 1479 1476 1473 1471 1468 1466 1463 1460 1458 1456 1455 1454 1454 1454 1453 1452 1451 1451 1450 1450 1449
1473 1476 1495 1493 1491 1488 1495 1492 1496 1491 1494 1480 1471 1466 1471 1473 1479 1482 1481 1481 1481 1480 1478 1475 1472 1469 1466 1465 1463 1460 1457 1455 1454 1453 1452 1451 1450 1449 1448 1447 1445 1445 1445 1444
1477 1480 1489 1491 1495 1495 1492 1487 1486 1480 1496 1500 1494 1470 1476 1477 1479 1480 1479 1478 1477 1476 1474 1472 1469 1466 1463 1461 1459 1457 1456 1454 1452 1451 1449 1448 1447 1446 1444 1444 1441 1440 1438 1438
1475 1482 1491 1496 1495 1494 1492 1491 1490 1491 1493 1498 1483 1468 1477 1478 1479 1478 1477 1476 1475 1474 1473 1470 1467 1464 1460 1457 1455 1454 1453 1451 1449 1448 1447 1444 1443 1442 1440 1439 1437 1436 1434 1433
1474 1479 1479 1474 1479 1482 1491 1488 1489 1489 1491 1482 1479 1474 1473 1473 1474 1474 1474 1475 1473 1472 1469 1467 1464 1461 1458 1455 1453 1452 1449 1448 1446 1445 1443 1441 1441 1438 1436 1433 1431 1432 1430 1430
1475 1482 1487 1482 1484 1486 1484 1484 1488 1491 1482 1482 1474 1478 1470 1470 1471 1472 1472 1471 1472 1470 1467 1465 1463 1460 1456 1453 1452 1449 1447 1446 1444 1443 1441 1439 1437 1435 1432 1430 1427 1426 1427 1427
1478 1486 1488 1486 1486 1486 1486 1481 1480 1482 1481 1481 1478 1474 1467 1467 1470 1469 1468 1468 1467 1465 1462 1462 1460 1457 1455 1453 1451 1448 1447 1445 1443 1441 1440 1437 1434 1432 1431 1429 1426 1425 1425 1424
1476 1483 1485 1478 1484 1483 1478 1468 1470 1472 1473 1473 1475 1465 1465 1465 1466 1466 1465 1464 1464 1463 1461 1459 1458 1456 1454 1452 1450 1448 1446 1444 1441 1440 1438 1436 1433 1432 1430 1428 1427 1426 1425 1425
1475 1480 1483 1481 1482 1473 1459 1462 1462 1464 1465 1468 1465 1463 1464 1463 1465 1463 1461 1463 1464 1460 1458 1458 1457 1454 1452 1450 1449 1446 1444 1443 1440 1439 1437 1435 1434 1432 1430 1430 1429 1429 1429 1429
1473 1475 1479 1481 1476 1461 1453 1460 1461 1460 1457 1461 1462 1461 1461 1462 1461 1460 1461 1461 1461 1457 1458 1457 1455 1453 1451 1449 1447 1446 1444 1443 1441 1440 1438 1436 1435 1434 1433 1432 1432 1433 1434 1435
1474 1473 1475 1480 1484 1464 1451 1454 1456 1456 1456 1456 1459 1459 1459 1461 1457 1455 1458 1459 1458 1457 1457 1456 1454 1453 1451 1449 1448 1447 1445 1444 1443 1442 1441 1440 1439 1437 1437 1437 1438 1439 1440 1441
1473 1476 1474 1473 1471 1457 1452 1455 1456 1461 1458 1458 1459 1459 1459 1458 1458 1457 1457 1457 1457 1457 1457 1457 1455 1454 1453 1451 1450 1450 1448 1446 1447 1446 1445 1444 1444 1443 1443 1443 1444 1445 1446 1446
1462 1469 1470 1469 1471 1466 1453 1457 1456 1454 1455 1456 1456 1456 1456 1456 1455 1455 1455 1455 1455 1456 1457 1457 1456 1456 1455 1454 1453 1452 1451 1450 1450 1450 1449 1449 1449 1449 1449 1449 1449 1450 1450 1451
1458 1453 1454 1454 1450 1449 1451 1451 1451 1452 1454 1454 1454 1454 1453 1453 1452 1452 1453 1453 1454 1455 1456 1456 1457 1456 1456 1456 1455 1454 1454 1454 1453 1453 1453 1453 1453 1453 1453 1453 1453 1453 1453 1453
1455 1455 1453 1453 1444 1447 1449 1450 1450 1450 1451 1452 1452 1451 1451 1450 1450 1450 1450 1450 1451 1453 1455 1455 1456 1456 1456 1456 1456 1456 1456 1456 1455 1455 1455 1455 1456 1456 1456 1456 1455 1455 1455 1455
1449 1451 1448 1446 1445 1446 1446 1446 1448 1449 1449 1449 1449 1448 1447 1446 1446 1446 1446 1447 1449 1450 1452 1454 1455 1455 1455 1456 1456 1456 1457 1457 1457 1457 1457 1457 1457 1457 1457 1457 1457 1456 1456 1456
1445 1442 1442 1437 1437 1439 1442 1444 1445 1446 1445 1445 1444 1443 1443 1442 1442 1441 1442 1443 1445 1446 1448 1451 1452 1453 1454 1455 1455 1456 1456 1457 1458 1458 1457 1458 1458 1458 1459 1458 1457 1457 1456 1455
Wind_Speed
23 7 16 21 18 3 10 16 10 9 4 5 11 12 12 15 16 18 19 19 19 17 15 15 18 21 22 24 25 24 26 28 28 26 30 34 39 38 37 35 36 34 31 32
9 15 14 13 12 9 14 14 10 5 4 4 4 9 13 14 16 13 12 13 12 10 7 8 15 19 21 24 26 27 27 28 29 30 29 34 35 40 42 39 36 37 37 36
15 12 14 14 12 11 9 12 9 3 5 1 6 8 6 3 6 4 6 7 7 7 8 9 8 2 6 12 19 25 30 32 32 33 31 30 29 34 38 41 40 38 38 42
8 2 17 18 15 13 9 4 7 5 4 4 4 1 4 6 8 11 12 11 9 8 8 10 10 9 7 3 3 7 14 23 32 34 35 33 30 35 40 45 45 44 45 43
3 7 18 18 19 13 4 7 8 3 2 2 3 4 6 11 11 10 10 9 7 6 7 9 10 10 9 7 6 5 5 7 13 24 33 32 27 27 26 28 32 37 43 45
4 6 3 3 9 7 15 10 7 3 1 3 3 3 8 8 10 11 6 6 7 6 7 8 10 11 9 8 8 8 8 8 8 10 17 26 32 27 25 26 28 31 33 38
3 3 3 3 10 6 6 10 3 3 3 2 2 4 2 9 5 10 7 7 6 6 8 9 10 12 14 13 12 11 12 12 12 12 12 14 23 27 27 27 29 29 32 36
3 4 4 2 2 5 5 4 2 4 5 3 2 5 2 7 4 10 5 7 6 6 8 9 12 13 14 15 14 13 14 15 15 16 16 15 16 18 23 26 25 24 24 26
4 4 3 6 6 4 5 4 1 4 1 2 4 4 4 2 6 12 6 8 6 6 7 10 10 12 12 12 12 13 14 15 18 19 19 18 17 18 19 21 22 24 24 25
3 5 2 4 1 8 1 7 2 0 4 4 4 4 4 9 10 9 4 6 8 7 9 11 11 11 10 9 10 12 12 13 13 14 14 15 16 17 17 19 21 24 25 25
5 2 2 3 3 6 4 3 2 2 1 2 2 3 2 11 9 5 9 9 9 7 9 11 12 13 12 10 10 11 12 11 8 8 8 8 10 13 15 17 19 21 25 25
2 4 4 2 2 3 2 3 5 3 5 0 2 1 3 5 3 4 11 10 10 7 9 10 10 12 11 9 10 9 9 9 9 10 11 12 13 15 17 19 18 19 18 21
5 3 4 2 1 1 5 6 4 4 2 5 3 3 2 3 4 8 9 9 8 8 8 9 9 10 10 8 7 7 8 8 9 10 12 12 14 17 20 21 19 17 18 15
3 3 1 3 3 4 4 9 10 5 4 5 7 1 5 6 7 8 8 8 6 6 8 8 8 9 11 11 8 6 8 10 11 13 14 15 16 17 15 18 20 17 16 17
1 2 1 1 1 3 3 6 13 10 9 6 1 7 8 9 8 9 10 6 5 5 5 6 7 7 10 11 11 8 8 9 10 10 10 10 11 13 11 11 10 11 12 14
1 3 1 2 1 6 8 11 12 15 15 14 14 17 16 11 5 7 9 6 6 6 7 6 7 8 7 7 7 6 7 8 9 8 8 10 10 9 8 8 7 7 7 8
4 5 2 1 0 4 8 17 19 11 10 15 12 13 7 8 7 10 7 4 5 6 6 6 6 6 7 7 7 6 6 8 8 8 9 9 8 8 8 7 6 3 1 0
6 5 2 1 2 4 2 3 5 18 11 16 12 13 13 10 11 6 5 1 3 6 7 6 5 5 6 6 6 6 5 5 6 7 8 8 9 9 9 8 7 6 5 6
4 4 2 2 4 9 5 4 6 6 6 17 17 15 14 8 7 5 4 2 1 6 4 3 3 5 6 6 5 5 5 5 6 8 9 10 10 10 11 11 11 11 11 12
4 3 4 3 3 4 3 5 6 4 4 5 12 9 6 3 4 1 6 2 2 5 5 6 9 10 10 11 9 9 12 12 15 14 14 14 14 15 15 15 15 14 14 14
5 3 9 7 5 6 4 7 5 3 4 1 7 7 4 3 4 3 6 4 6 6 8 9 10 12 11 12 13 14 15 17 16 15 15 17 18 18 18 16 14 13 13 12
9 6 4 6 5 7 7 5 4 5 4 5 5 4 5 6 8 8 9 8 10 9 9 8 8 10 10 12 13 14 16 17 18 16 16 17 17 16 15 13 13 11 10 10
7 6 4 7 4 1 9 2 5 3 4 5 5 6 7 7 7 9 12 11 12 11 10 9 8 8 8 10 10 13 14 14 14 14 14 14 13 13 13 12 11 10 9 7
5 7 3 2 6 12 6 8 8 9 5 3 6 9 10 10 8 9 13 14 15 14 13 10 9 8 7 7 9 10 11 12 12 11 11 11 10 10 9 8 8 7 6 5
2 10 9 7 8 5 8 8 3 3 4 8 10 12 13 13 10 9 14 16 16 17 17 14 13 11 9 8 8 9 10 10 8 8 9 9 8 7 6 5 5 4 2 2
8 6 6 4 5 5 5 5 4 10 10 9 13 15 15 14 12 10 13 17 18 19 20 19 17 15 14 12 10 9 10 9 6 7 7 7 5 4 4 3 2 1 2 4
Wind_Direction
194 182 187 186 198 244 171 194 197 217 138 222 237 248 252 254 258 257 262 269 274 273 275 276 269 263 260 256 253 252 249 249 249 239 240 247 250 251 250 248 247 248 249 250
172 210 192 172 177 179 178 180 191 129 161 234 228 259 253 252 258 271 274 271 276 288 301 301 277 264 259 257 254 249 247 246 245 245 241 246 248 249 250 248 246 245 247 249
177 183 164 175 174 160 179 183 165 151 161 170 289 247 193 120 109 101 87 90 90 77 55 40 33 358 256 258 255 250 245 241 241 242 245 242 243 247 252 251 250 249 249 247
157 157 175 181 187 179 166 124 131 134 209 232 325 202 132 134 110 103 100 89 81 65 48 39 42 44 42 17 307 272 260 252 245 243 243 243 239 245 252 255 256 252 250 248
92 182 178 184 188 197 124 145 113 99 130 290 173 239 122 154 131 132 106 75 60 42 29 24 28 31 23 4 348 326 298 276 258 251 248 244 242 245 252 254 257 259 259 257
57 49 34 75 73 179 138 110 80 92 214 231 167 256 167 182 158 154 133 47 32 26 22 11 7 1 350 339 323 313 305 297 285 272 258 251 249 249 249 249 251 255 259 260
57 35 90 85 77 22 190 156 141 187 202 252 125 216 343 154 151 170 136 23 8 8 7 3 354 349 337 325 314 306 298 292 283 280 274 256 245 245 251 250 253 255 259 261
86 93 12 33 127 156 143 190 228 188 187 150 153 232 119 144 162 167 178 347 353 0 359 352 346 346 339 329 318 305 293 290 283 272 269 269 267 263 260 256 251 253 254 261
123 88 121 202 154 173 155 200 49 101 93 246 173 226 251 158 167 180 219 333 351 351 348 346 347 344 337 329 323 317 309 302 293 285 274 267 267 269 266 263 261 263 260 260
131 114 102 156 135 52 274 133 143 249 178 223 188 239 149 163 153 168 294 343 347 346 352 354 349 343 336 332 328 329 328 325 302 283 283 278 272 268 268 265 264 262 260 259
127 94 131 185 205 169 141 179 76 112 296 268 246 126 108 159 161 184 344 346 341 342 346 344 338 334 328 313 310 321 327 335 318 300 295 291 292 291 280 271 267 269 269 267
66 109 140 126 35 322 286 227 210 230 181 145 325 124 147 155 195 269 323 330 333 338 341 342 344 340 330 313 293 302 320 330 325 307 296 296 295 294 296 303 292 277 271 270
170 119 117 132 228 179 223 198 214 106 63 197 216 126 130 184 229 302 298 322 328 328 334 347 349 347 343 334 319 306 322 334 328 322 320 321 307 295 288 285 291 296 280 275
113 127 247 189 93 125 197 200 199 184 188 181 228 300 175 251 305 315 322 324 328 331 339 339 347 350 358 359 348 335 330 327 326 321 320 317 310 304 302 289 280 284 288 281
36 112 121 219 149 187 213 200 198 208 208 211 179 228 267 297 299 303 312 320 319 324 339 341 349 354 352 2 356 358 344 329 326 327 319 314 316 319 315 312 300 286 275 274
139 134 145 210 165 230 247 234 220 222 229 246 257 276 276 284 275 313 319 318 326 345 357 353 354 358 350 348 342 348 338 334 338 339 338 334 329 322 326 330 321 306 295 280
160 145 169 224 304 280 256 229 212 208 209 219 228 238 253 288 313 319 319 327 328 343 356 358 354 347 346 351 348 356 351 352 355 351 348 352 359 352 353 5 6 6 348 240
156 130 131 307 275 233 53 145 201 217 221 217 241 252 268 295 307 302 310 273 289 360 11 353 349 346 343 349 348 357 356 9 4 9 19 26 31 33 35 33 42 45 61 98
180 151 150 253 252 296 267 184 167 184 210 216 229 254 274 299 306 261 221 248 298 32 36 28 24 27 25 45 43 38 42 46 51 59 58 57 57 60 65 70 77 87 96 106
153 236 209 166 256 252 50 138 181 220 153 165 210 249 280 318 265 159 197 219 86 82 78 75 70 65 66 68 68 78 81 78 75 73 71 73 76 80 85 88 92 102 110 117
170 189 219 222 259 281 214 156 141 195 127 212 226 252 254 236 291 219 215 194 146 121 105 89 82 80 77 80 85 86 88 86 83 84 85 86 87 88 89 92 95 101 107 110
184 188 191 212 221 254 150 140 210 113 134 270 269 275 280 277 272 244 216 194 168 146 130 120 102 95 90 93 98 102 98 98 97 93 91 89 88 87 90 93 98 100 98 100
203 207 191 211 221 43 193 249 166 154 289 258 237 284 292 292 278 241 215 197 181 166 155 148 135 130 119 108 110 109 104 104 105 101 98 94 95 95 94 94 94 95 94 89
222 188 230 199 231 236 230 235 280 283 244 214 285 297 292 288 281 241 217 204 190 185 180 172 168 160 150 150 137 129 120 119 113 107 105 104 103 101 101 99 95 88 78 63
182 164 213 242 254 260 241 250 197 232 254 289 286 286 292 284 279 254 223 214 205 197 191 191 192 187 181 176 161 141 132 131 131 125 118 114 110 103 94 84 78 72 45 8
188 193 198 226 192 199 143 163 263 281 281 296 298 286 279 274 272 260 233 223 216 208 197 196 196 199 193 187 181 170 159 151 150 143 136 131 124 113 104 94 67 31 343 334